Weather in Noviy Torjyal

Russia / Mari El Republic     57°00′12″N   48°44′23″E
temp.,
°C
wind,
m/s
gust,
m/s
humid.,
%
clouds,
%
prec.,
mm/h
press.,
hPa
HPBL,
m
19 september, sun
sun1900:000nw49825 0.0 1024172
03:00−1nw49865 0.0 1024180
06:00−1nw38955 0.0 1025181
09:00+5nnw46665 0.0 1025581
12:00+8nw455123 0.0 10251350
15:00+9nnw5645100 0.0 10251561
18:00+4nne356347 0.0 102686
21:00+1ne34835 0.0 102772
20 september, mon
mon2000:00−1nne228323 0.0 102819
03:00−1nne228166 0.0 102911
06:00−1ene227599 0.0 102929
09:00+5ene3551100 0.0 1029981
12:00+8ene454475 0.0 10281208
15:00+9ene4443100 0.0 10281299
18:00+5ene4660100 0.0 1028103
21:00+3e376999 0.0 1029133
21 september, tue
tue2100:00+2e487599 0.0 1029150
03:00+1e4883100 0.0 1029165
06:00+1e4108699 0.0 1028255
09:00+5ese6865100 0.0 1028513
12:00+8ese6753100 0.0 1026910
15:00+9ese5650100 0.0 10251020
18:00+6e376281 0.0 1025160
21:00+5e497089 0.0 1025183
22 september, wed
wed2200:00+3e4107756 0.0 1024194
03:00+1e4118536 0.0 1024196
06:00+2e5128261 0.0 1024247
09:00+8e711565 0.0 1024482
12:00+13e794512 0.0 1023955
15:00+13ese794799 0.0 10231094
18:00+10ese5125471 0.0 1023570
21:00+8e5136396 0.0 1024378
23 september, thu
thu2300:00+9e61261100 0.0 1023385
03:00+9ese51262100 0.0 1023430
06:00+8ese51182100 0.2 1023356
09:00+10ese61177100 0.2 1023421
12:00+13se61059100 0.0 1023653
15:00+14se61159100 0.0 1022825
18:00+12sse61275100 0.0 1023609
21:00+10sse61387100 0.4 1023519